Regional Weather Roundup
Issued by NWS

Home | Current Version | Previous Version | Graphics & Text | Print | Product List | Glossary Off
Versions: 1 2 3 4 5 6 7 8 9 10 11 12 13 14 15 16 17 18 19 20 21 22 23 24 25 26 27 28 29 30 31 32 33 34 35 36 37 38 39 40 41 42 43 44 45 46 47 48 49 50

000
ASUS43 KTOP 011108
RWRKS

WEATHER ROUNDUP FOR KANSAS
NATIONAL WEATHER SERVICE GOODLAND KS
500 AM CST SUN MAR 01 2015

NOTE:  "FAIR" INDICATES FEW OR NO CLOUDS BELOW 12,000 FEET WITH NO
SIGNIFICANT WEATHER AND/OR OBSTRUCTIONS TO VISIBILITY.

KSZ001>006-013>018-027>032-041>047-011200-
NORTHWEST KANSAS

CITY           SKY/WX    TMP DP  RH WIND       PRES   REMARKS
GOODLAND       CLOUDY    20  18  92 S7        30.14S
HAYS           CLOUDY    18   7  62 CALM      30.27S
HILL CITY      CLOUDY    17  14  88 CALM      30.26S
RUSSELL        CLOUDY    18  16  92 SW3       30.27S
$$

KSZ061>065-074>080-084>089-011200-
SOUTHWEST KANSAS

CITY           SKY/WX    TMP DP  RH WIND       PRES   REMARKS
DODGE CITY     CLOUDY    20  16  84 S6        30.23R FOG
ELKHART          N/A     22  20  93 N1          N/A
GARDEN CITY    CLOUDY    19  18  95 SE5       30.19S FOG
GREAT BEND     CLOUDY    19  12  73 CALM      30.29S
LIBERAL        CLOUDY    23  18  80 S5        30.19S
PRATT          LGT SNOW  21  19  93 CALM      30.28S
$$

KSZ066>073-081>083-090>101-011200-
SOUTHEAST KANSAS

CITY           SKY/WX    TMP DP  RH WIND       PRES   REMARKS
CHANUTE        CLOUDY    23  21  92 CALM      30.34S FOG
COFFEYVILLE    CLOUDY    25  24  96 CALM      30.36S FOG
HUTCHINSON     CLOUDY    22  18  85 CALM      30.31R
MEDICINE LODGE   N/A     21  20  96 CALM      30.31R
NEWTON         CLOUDY    21  16  79 CALM      30.33R VSB 1/4
PARSONS        CLOUDY    25  23  92 CALM      30.36R FOG
WICHITA INTL   FOG       23  21  92 CALM      30.32R VSB 1/8
WICHITA JABRA  FOG       21  21 100 CALM      30.33R VSB 1/2
WICHITA MCCONL FOG       22  20  93 CALM      30.32R VSB 1/2
WINFIELD       LGT SNOW  23  22  96 CALM      30.34S FOG
$$

KSZ007>012-019>026-033>040-048>060-102>105-011200-
NORTHEAST KANSAS

CITY           SKY/WX    TMP DP  RH WIND       PRES   REMARKS
CONCORDIA      CLOUDY    20  17  88 W3        30.30S
EMPORIA        MIX PCPN  21  19  92 CALM      30.32S
LAWRENCE       CLOUDY    21  19  92 CALM      30.36S FOG
MANHATTAN      MOCLDY    20  18  92 CALM      30.35R
MARYSVILLE     CLOUDY    21  19  93 CALM      30.33S
OLATHE IND     CLOUDY    21  19  92 CALM      30.35R
OLATHE EXE     CLOUDY    22  20  92 CALM      30.33S
SALINA         CLOUDY    19  16  88 CALM      30.34R
TOPEKA BILLARD CLOUDY    22  19  89 CALM      30.37R
TOPEKA FORBES  CLOUDY    23  19  85 CALM      30.35R
$$



USA.gov is the U.S. government's official web portal to all federal, state and local government web resources and services.